Regional Weather Roundup
Issued by NWS Upton, NY

Current Version | Previous Version | Graphics & Text | Print | Product List | Glossary Off
Versions: 1 2 3 4 5 6 7 8 9 10 11 12 13 14 15 16 17 18 19 20 21 22 23 24 25 26 27 28 29 30 31 32 33 34 35 36 37 38 39 40 41 42 43 44 45 46 47 48 49 50

000
ASUS41 KOKX 270205
RWROKX

REGIONAL WEATHER ROUNDUP
NATIONAL WEATHER SERVICE NEW YORK NY
900 PM EST WED NOV 26 2014

NOTE: "FAIR" INDICATES FEW OR NO CLOUDS BELOW 12,000 FEET WITH NO
SIGNIFICANT WEATHER AND/OR OBSTRUCTIONS TO VISIBILITY.

NYZ071-072-176-178-NJZ106-104-270300-
NEW YORK CITY METRO AREA


CITY           SKY/WX    TMP DP  RH WIND       PRES   REMARKS
CENTRAL PARK   MIX PCPN  35  32  88 N10G16    29.82S FOG     WCI  27
LAGUARDIA APRT LGT SNOW  35  33  92 N18G29    29.79S FOG     WCI  24
KENNEDY INTL   LGT SNOW  36  32  85 N17G26    29.79R FOG     WCI  26
NEWARK/LIBERTY LGT RAIN  36  33  89 NW14      29.81F WCI  27
BRNX BOT. GARD   N/A     34  32  93 NW5       29.78F WCI  30
TETERBORO      LGT SNOW  35  31  85 N10       29.80F WCI  27
$$

NYZ177-179-078>081-270300-
LONG ISLAND NEW YORK

CITY           SKY/WX    TMP DP  RH WIND       PRES   REMARKS
FARMINGDALE    LGT RAIN  38  34  85 N14G23    29.75R WCI  30
ISLIP          LGT SNOW  37  34  89 N16G28    29.70S FOG     WCI  28
SHIRLEY        LGT SNOW  36  34  92 N21G30    29.72R FOG     WCI  25
WESTHAMPTON    LGT RAIN  37  34  89 N17G29    29.71R FOG     WCI  27
MONTAUK POINT    N/A     40  37  89 N18G26    29.63F WCI  31
$$

NYZ052-065-067-270300-
HUDSON VALLEY

CITY           SKY/WX    TMP DP  RH WIND       PRES   REMARKS
WHITE PLAINS   LGT SNOW  33  30  88 N23G31    29.76S FOG     WCI  21
NEWBURGH       LGT SNOW  32  32 100 NW14      29.86S WCI  22
MONTGOMERY     CLOUDY    34  31  88 N5        29.84S WCI  30
POUGHKEEPSIE   LGT SNOW  34  30  85 N12G21    29.85F FOG     WCI  25
ALBANY         LGT SNOW  32  29  88 N9        29.93F FOG     WCI  24
$$

NJZ001-105-106-008-010-013-015-019>022-104-270300-
NEW JERSEY

CITY           SKY/WX    TMP DP  RH WIND       PRES   REMARKS
NEWARK/LIBERTY LGT RAIN  36  33  89 NW14      29.81F WCI  27
TETERBORO      LGT SNOW  35  31  85 N10       29.80F WCI  27
CALDWELL       MIX PCPN  34  30  85 VRB5      29.83S WCI  30
MORRISTOWN     NOT AVBL
SOMERVILLE     CLOUDY    37  31  78 N10G20    29.82F WCI  30
SUSSEX         LGT SNOW  34  31  88 N7        29.85F FOG     WCI  28
ANDOVER          N/A     33  31  92 N9        29.85F WCI  25
TRENTON        FLURRIES  34  31  88 NW13G22   29.82F WCI  25
MILLVILLE      LGT RAIN  37  35  92 NW10G21   29.86R WCI  30
ATLANTIC CITY  CLOUDY    36  34  92 NW16      29.82R WCI  26
WRIGHTSTOWN    LGT RAIN  35  34  98 NW15      29.80F WCI  25
TOMS RIVER     CLOUDY    36  34  93 N3        29.81S
BELMAR         CLOUDY    36  28  75 NW15G21   29.79S WCI  26
$$

PAZ047>061-062-071-270300-
EASTERN PENNSYLVANIA

CITY           SKY/WX    TMP DP  RH WIND       PRES   REMARKS
PHILADELPHIA   CLOUDY    36  32  85 NW16      29.88R WCI  26
ALLENTOWN      CLOUDY    35  29  78 N10       29.87F WCI  27
SCRANTON       LGT SNOW  32  29  88 VRB5      29.92S FOG     WCI  27
$$

CTZ002-004>006-009-010-012-RIZ004-006-007-MAZ004-011-015-270300-
SOUTHERN NEW ENGLAND
 IN CT

CITY           SKY/WX    TMP DP  RH WIND       PRES   REMARKS
BRADLEY INTL   LGTSLEET  34  31  88 N18G28    29.76F FOG     WCI  23
HARTFORD       RAIN      34  31  88 N15G24    29.75F FOG     WCI  24
DANBURY        LGT SNOW  33  31  92 N12G18    29.79F FOG     WCI  24
WTRBRY/OXFORD  LGT RAIN  34  27  75 N167      29.75  FOG     WCI  14
BRIDGEPORT     LGT SNOW  37  34  89 N17G25    29.75R FOG     WCI  27
MERIDEN        LGT RAIN  35  31  85 N18G30    29.75R FOG     WCI  24
NEW HAVEN      LGT RAIN  38  33  82 N15G29    29.73R WCI  29
CHESTER        RAIN      34  32  93 N16       29.69R WCI  23
GROTON         MIX PCPN  35  35 100 N20G32    29.65R FOG     WCI  24
WILLIMANTIC    RAIN      35  32  88 N10       29.71F FOG     WCI  27

 IN RI

CITY           SKY/WX    TMP DP  RH WIND       PRES   REMARKS
PROVIDENCE     LGT SNOW  35  34  96 N25G32    29.65F FOG     WCI  23
BLOCK ISLAND   CLOUDY    43  39  87 NE25G33   29.58F
WESTERLY       LGT RAIN  37  34  89 NW10G22   29.64S FOG     WCI  30

 IN MA

CITY           SKY/WX    TMP DP  RH WIND       PRES   REMARKS
BOSTON         LGT SNOW  38  36  92 N23G30    29.71F FOG     WCI  27
WORCESTER      MIX PCPN  30  30 100 N21G30    29.71S FOG     WCI  17
WESTFIELD      LGT SNOW  34  31  88 N20G26    29.78F FOG     WCI  23
PROVINCETOWN   CLOUDY    48  41  76 NE26G43   29.62F
NANTUCKET      LGT RAIN  48  45  89 N24G32    29.51F
$$

ANZ330-335-338-340-345-350-353-355-270300-
COASTAL MARINE OBSERVATIONS


STATION/POSITION TIME  SKY/WX   TEMP    WIND        PRES    VSBY  WAVE
                                AIR SEA DIR/SP/G                  HT/PER
                 (UTC)          (F)     (DEG/KT/KT) (MB)    (MI)  (FT/S)
NY HARB ENTRANCE 0200            40 55  330/ 25/ 31 1007.6          8/ 8
4S FIRE IS       0200               53                N/A           9/ 8
20S FIRE ISLAND  0200            41 54  350/ 29/ 33 1004.9         11/ 9
23SW MTP         0200                                 N/A          14/ 8
HUDSON CANYON    0200            47 59  330/ 33/ 43 1001.0         19/ 9
EXECUTION ROCKS  0200            37 48  330/ 19/ 25   N/A
WESTERN LI SOUND 0200            37     340/ 19/ 23   N/A           3/ 5
CENTRAL LI SOUND 0100            36 50  350/ 19/ 23   N/A           4/ 5
EASTERN LI SOUND 0100            40 52   10/ 19/ 25   N/A
ROBBINS REEF     0200            35     340/ 14/ 18 1007.9
$$


>>>>>>>>>>>>>>>>>>>>>>>>>>>> KEY <<<<<<<<<<<<<<<<<<<<<<<<<<<
>                                                          <
>     SKY/WX - SKY CONDITION/PRESENT WEATHER               <
>     TMP    - TEMPERATURE IN FAHRENHEIT                   <
>     DP     - DEWPOINT IN FAHRENHEIT                      <
>     RH     - RELATIVE HUMIDITY IN PERCENT                <
>     WIND   - DIRECTION AND SPEED IN MPH                  <
>     PRES   - MEAN SEA LEVEL PRESSURE IN INCHES OF HG     <
>     WCI    - WIND CHILL INDEX                            <
>     VSB    - VISIBILITY IN MILES                         <
>     HX     - HEAT INDEX                                  <
>     TC     - TEMPERATURE IN CELSIUS                      <
>     VRB    - VARIABLE WIND DIRECTION                     <
>                                                          <
>>>>>>>>>>>>>>>>>>>>>>>>>>>> KEY <<<<<<<<<<<<<<<<<<<<<<<<<<<





USA.gov is the U.S. government's official web portal to all federal, state and local government web resources and services.